Terug naar catalogus

FENGYUN 1C DEB

ActiefSSO
NORAD 30746·DEBRIS·🇨🇳 China

Gelanceerd May 10, 1999 vanaf Taiyuan Satellite Launch Center

Loading…

Volgende Passages (komende 24 uur)

TLE

VersSource: Space-Track

Epoch: Sep 14, 2026, 08:52 UTC

1 30746U 99025ATG 26257.36995521  .00000698  00000-0  29698-3 0  9997
2 30746  99.0584  93.1287 0044793 241.6764 240.8569 14.28061089 13797

Volg FENGYUN 1C DEB in realtime met AllMySat

Download on the App Store